Temperature
14 14 13 13 13 13 13 13 13 13 13 13 13 13 12 12 11 10 10 11 10 10 10 10 10 10 10 10 10 11 11 11 11 11 11 11 11 11 11 11 11 11 11
15 14 14 14 13 13 13 13 13 13 13 13 13 12 12 12 11 10 9 10 10 10 10 10 10 9 9 10 10 10 10 10 10 10 10 10 10 10 10 10 10 10 10
15 15 14 14 13 13 13 13 13 13 12 12 12 12 12 11 11 10 9 9 10 10 10 10 10 9 9 9 9 9 9 9 9 9 9 9 9 9 9 9 9 9 9
15 14 14 14 14 13 13 13 13 12 12 12 12 12 12 11 10 10 10 9 9 9 9 9 9 9 9 9 8 8 8 8 8 8 8 8 8 7 7 7 7 7 8
15 14 14 14 14 13 13 13 12 12 12 12 12 12 11 11 10 10 9 9 9 9 9 9 9 9 9 8 8 8 8 8 8 8 7 7 7 6 6 6 6 6 6
15 14 14 14 14 13 13 12 12 12 12 11 11 11 11 10 10 10 9 9 9 9 9 9 9 9 8 8 8 7 7 7 7 7 6 6 6 5 5 4 4 4 5
16 15 15 14 14 13 13 12 12 12 11 11 11 11 11 11 10 10 9 9 9 9 9 9 9 8 8 8 7 7 7 7 6 6 5 5 4 4 4 4 4 4 4
16 16 15 15 15 14 13 12 12 12 11 11 11 10 10 9 10 10 10 9 9 9 9 9 9 8 8 7 7 7 6 6 6 5 5 4 3 3 3 3 3 3 3
16 16 15 15 15 14 13 13 13 12 11 11 11 11 11 10 10 10 10 10 10 9 9 9 9 8 8 7 6 6 6 6 5 5 4 3 3 2 2 2 2 2 2
15 15 15 14 14 14 14 13 13 12 12 11 11 11 11 11 11 10 10 10 10 9 9 9 9 8 7 7 6 6 6 5 5 4 4 3 2 2 2 2 2 2 2
15 15 14 14 14 14 14 13 13 12 12 12 11 11 11 11 11 11 11 11 10 10 9 9 8 8 7 6 5 5 5 4 4 4 3 2 1 1 1 1 1 1 1
14 14 13 13 13 14 14 13 13 13 12 12 12 11 11 11 11 11 11 11 11 10 9 8 8 7 6 5 5 5 4 4 3 3 3 2 1 0 0 0 0 -0 -0
12 13 13 13 13 13 13 12 12 13 12 12 11 11 11 11 11 11 10 10 9 9 9 8 7 6 5 4 4 4 3 3 3 3 3 2 1 1 1 0 -0 -1 -1
12 12 12 12 12 12 11 11 11 11 11 11 11 10 10 10 9 9 9 9 8 7 7 6 6 5 4 3 3 2 2 2 2 2 2 2 1 1 1 1 -0 -1 -2
12 11 11 11 11 10 10 10 10 10 10 10 10 10 9 9 8 8 8 8 7 6 5 4 4 3 3 2 1 1 1 1 2 2 1 1 1 1 0 -0 -1 -1 -2
11 11 11 10 10 9 9 9 9 9 9 10 10 9 8 7 7 7 6 6 6 5 4 3 2 2 1 1 1 0 -0 -0 0 0 0 -0 -1 -1 -1 -2 -2 -2 -2
11 10 10 10 9 9 9 8 9 9 9 9 9 8 7 5 5 5 5 5 4 4 3 2 2 1 1 0 -0 -1 -1 -1 -2 -1 -1 -1 -2 -2 -2 -3 -3 -3 -3
10 10 9 9 8 8 8 8 8 8 8 8 7 6 5 4 4 4 4 3 3 3 2 1 1 0 -0 -1 -1 -1 -2 -2 -2 -2 -2 -2 -3 -3 -3 -3 -3 -4 -4
9 8 8 8 7 7 7 8 7 7 7 6 5 4 4 3 3 3 3 2 2 1 1 -0 -1 -1 -2 -2 -2 -3 -3 -4 -4 -3 -3 -3 -3 -3 -3 -4 -4 -4 -4
8 8 7 7 7 7 7 7 6 6 5 4 3 2 2 2 2 2 2 1 1 -0 -1 -2 -2 -3 -4 -4 -4 -5 -6 -6 -6 -5 -4 -4 -4 -4 -4 -4 -4 -4 -4
7 6 6 6 6 6 5 5 4 4 3 2 1 1 1 1 1 1 1 0 -1 -2 -2 -3 -4 -5 -6 -6 -6 -7 -7 -7 -7 -6 -5 -5 -5 -4 -4 -4 -4 -4 -4
5 5 5 4 4 3 3 2 2 1 1 1 1 1 1 1 1 0 -0 -1 -2 -3 -4 -5 -6 -6 -7 -7 -7 -8 -8 -8 -8 -7 -7 -7 -6 -5 -4 -4 -4 -4 -4
3 3 3 2 2 1 0 -0 -0 0 1 1 1 1 0 0 -0 -1 -2 -2 -3 -4 -5 -6 -7 -7 -7 -8 -8 -8 -8 -8 -8 -8 -8 -8 -6 -6 -5 -4 -4 -4 -4
1 1 0 0 -0 -1 -1 -0 -0 0 0 0 0 -0 -1 -1 -2 -2 -2 -3 -4 -5 -6 -7 -8 -8 -8 -8 -8 -8 -8 -9 -8 -8 -8 -8 -7 -7 -6 -5 -4 -4 -4
-0 -1 -1 -1 -1 -1 -1 -1 -1 -0 -1 -1 -2 -2 -2 -2 -3 -3 -4 -5 -6 -7 -7 -6 -7 -7 -7 -8 -8 -9 -8 -9 -9 -8 -8 -8 -7 -8 -7 -5 -4 -4 -4
-1 -1 -1 -1 -1 -1 -1 -2 -2 -2 -2 -2 -2 -3 -3 -3 -4 -6 -6 -7 -7 -7 -7 -7 -7 -7 -7 -7 -7 -8 -8 -9 -9 -8 -7 -8 -8 -8 -8 -5 -5 -5 -5
Wind_Speed
10 10 9 9 10 8 8 7 7 6 6 5 4 5 5 5 6 6 7 9 9 8 8 8 8 8 8 8 8 8 8 8 9 9 10 10 11 11 11 12 12 11 11
11 10 9 9 10 10 9 8 8 7 6 5 5 5 6 6 6 7 7 9 9 9 8 8 8 7 7 7 7 6 6 7 7 7 8 9 9 10 10 11 11 11 11
14 12 10 9 11 11 10 8 8 6 5 5 5 6 6 7 7 7 7 7 8 9 8 8 7 7 6 6 5 5 5 5 5 5 6 7 7 8 9 9 10 10 11
17 14 10 10 13 12 10 8 8 7 6 6 6 6 6 6 8 8 8 8 8 8 9 8 7 6 5 4 4 3 3 3 3 3 4 5 6 7 8 9 9 10 11
19 16 12 12 14 11 10 9 9 8 7 7 6 6 6 7 7 8 9 9 8 8 8 9 7 6 4 3 3 2 2 2 2 2 4 5 6 7 8 9 10 11 11
20 18 13 14 14 11 10 10 10 8 7 7 6 5 6 6 7 8 9 9 9 9 9 8 7 5 4 2 2 2 3 3 3 4 5 7 8 9 10 11 12 12 13
19 18 12 14 14 13 14 14 11 11 7 8 6 5 5 7 8 7 8 9 10 10 9 9 7 6 4 2 0 2 3 4 5 6 7 9 10 11 12 13 14 14 15
19 17 17 15 15 14 16 16 13 9 7 9 7 5 5 6 8 9 8 8 9 10 10 9 8 6 5 4 1 1 2 4 6 8 9 11 12 14 15 16 16 17 17
19 18 18 16 16 15 15 17 17 15 10 11 9 7 5 7 6 8 11 10 10 9 9 9 9 7 5 4 3 2 1 3 6 9 11 12 14 16 17 18 19 19 19
17 19 17 16 15 15 16 17 18 16 14 11 9 7 5 3 5 6 7 10 11 10 10 8 9 7 6 5 3 1 1 4 7 10 13 15 17 18 19 20 20 20 19
16 16 16 15 16 15 17 17 18 18 15 13 9 6 5 3 5 5 5 7 8 9 9 9 8 7 7 6 5 2 1 5 8 12 15 18 19 20 21 21 21 21 20
12 15 15 15 16 15 17 17 17 19 16 15 12 9 7 5 6 6 4 4 6 7 9 7 7 7 7 6 5 1 2 6 10 14 18 20 21 21 21 21 21 21 21
11 14 14 15 14 15 15 15 15 16 17 15 13 10 8 5 3 4 4 3 3 3 5 6 6 7 7 7 5 2 4 7 12 16 19 21 21 21 21 22 22 23 23
12 13 14 14 15 14 13 12 12 13 13 13 11 9 5 4 3 3 4 5 4 3 4 5 4 6 7 7 4 5 7 9 12 16 19 21 22 22 23 23 23 24 24
10 11 12 13 13 13 12 11 9 11 10 9 8 8 6 5 5 4 3 3 5 4 4 3 3 4 6 6 6 8 10 11 14 18 20 21 22 23 23 24 24 24 25
9 9 10 11 11 11 11 10 8 9 9 8 7 9 8 7 6 5 5 5 4 3 3 2 2 2 4 5 7 10 12 14 17 18 19 21 22 24 24 25 25 25 25
7 7 8 9 10 10 10 10 9 11 11 10 10 11 10 9 7 6 6 5 5 3 2 1 1 2 4 6 8 10 12 13 14 17 19 21 23 24 24 24 24 25 25
4 5 6 7 8 9 10 10 11 11 12 13 12 12 11 9 9 7 6 5 4 3 2 3 4 5 6 7 8 10 12 13 14 18 21 22 23 24 24 24 23 23 24
2 4 5 6 7 8 9 9 11 11 12 12 12 12 11 11 9 7 6 5 4 3 3 4 5 5 6 6 9 10 11 12 14 16 19 20 21 22 22 22 23 24 25
4 5 6 7 7 8 9 11 12 12 12 12 11 11 10 9 8 7 5 5 4 4 4 5 6 6 7 7 8 9 9 9 10 12 16 18 19 20 22 24 25 26 26
8 9 10 10 10 9 10 12 13 14 14 13 11 9 8 8 8 6 4 4 5 4 5 6 7 7 7 7 7 8 10 10 11 11 11 10 12 13 17 20 22 24 24
11 11 11 11 11 9 16 17 15 13 12 12 10 8 7 7 6 4 4 6 7 6 6 6 7 8 9 9 8 9 10 11 11 7 10 12 12 14 15 17 21 24 26
12 12 12 12 13 15 19 18 17 12 11 10 9 7 5 5 4 2 2 4 6 7 9 8 10 10 10 9 10 11 12 12 13 12 13 15 14 15 14 19 24 26 28
11 11 12 12 13 15 19 19 18 12 10 9 7 6 5 4 2 2 3 4 5 6 7 7 8 9 9 10 11 11 12 14 15 13 13 14 14 14 14 16 23 26 28
11 10 10 12 13 14 17 16 13 8 8 7 5 4 3 1 1 3 3 4 6 6 6 9 12 14 15 16 15 11 11 11 12 12 11 10 11 13 14 15 18 22 23
10 10 11 10 10 10 12 11 9 5 6 5 4 3 2 2 2 3 3 4 6 7 8 8 9 11 12 13 13 11 9 9 9 8 7 6 10 10 8 10 10 12 15
Wind_Direction
205 207 210 202 203 197 193 198 200 188 184 178 180 180 176 173 168 152 130 110 111 116 113 108 103 98 92 85 79 73 67 60 56 52 49 47 42 37 34 32 27 23 21
208 206 207 205 206 203 201 200 202 193 191 188 185 186 182 177 177 170 150 129 115 119 122 115 108 100 92 83 77 72 66 57 52 47 43 40 36 30 26 24 20 15 12
212 208 206 201 202 202 198 199 194 194 189 185 189 189 189 187 180 175 169 158 142 126 126 124 117 106 93 81 73 71 66 54 46 40 33 28 24 18 14 11 8 4 1
214 211 208 204 200 195 191 189 187 187 187 191 189 186 191 189 191 183 178 175 164 153 137 127 120 111 98 79 62 57 57 47 32 23 13 5 359 355 353 352 350 348 346
215 212 211 205 199 196 193 189 192 192 192 188 187 187 193 193 191 192 191 184 176 173 158 134 123 110 103 80 49 24 11 358 348 338 333 330 328 327 328 330 331 330 329
216 214 211 206 198 197 195 192 189 189 188 175 171 184 197 199 201 201 197 190 185 184 182 171 167 143 122 92 25 339 316 302 299 302 306 309 309 310 313 314 316 316 316
215 214 211 206 201 202 200 196 187 182 178 166 162 181 198 211 214 205 205 201 196 193 193 193 195 191 181 161 26 317 299 292 291 294 299 301 302 303 304 305 306 307 307
216 214 213 208 204 206 203 197 185 184 177 182 181 176 196 205 216 214 209 210 204 197 202 202 201 202 208 218 156 322 310 304 302 299 299 300 301 302 301 300 300 300 301
219 216 218 214 207 206 203 198 194 189 187 191 199 192 192 206 187 197 211 209 208 205 204 201 202 200 199 207 206 167 20 327 311 306 304 305 304 301 299 297 296 295 295
220 218 219 219 211 210 208 202 200 199 191 188 200 225 240 201 182 182 200 211 211 213 209 200 200 196 194 195 185 120 17 325 313 311 308 305 302 299 297 295 294 294 294
222 218 218 217 214 214 215 206 202 202 199 195 187 183 199 212 221 195 186 193 205 214 209 203 199 197 191 197 202 170 324 315 313 311 308 305 302 299 297 296 295 295 294
224 219 217 216 217 216 218 213 206 206 205 203 194 184 179 179 195 197 189 179 192 194 197 200 202 198 193 196 193 151 290 307 311 310 307 305 302 300 298 297 295 293 291
229 221 216 218 220 220 220 215 210 211 210 208 203 200 194 184 161 178 178 151 160 156 186 200 204 197 191 199 195 204 261 296 307 307 306 303 302 301 298 295 292 290 288
239 228 217 218 220 221 219 214 212 211 211 210 205 191 170 147 138 154 154 146 148 158 181 177 175 192 193 206 207 248 271 284 299 303 302 301 301 299 295 292 290 288 287
247 233 219 216 216 215 212 206 207 205 201 201 185 163 144 127 117 111 112 133 151 163 169 150 171 187 202 219 229 264 279 282 291 294 295 296 295 293 291 289 287 286 284
251 236 221 213 210 206 202 195 192 185 177 169 155 146 136 132 121 107 99 84 79 112 142 150 172 167 203 240 256 276 282 285 283 285 288 290 291 289 287 285 283 283 282
250 233 218 207 199 194 188 184 180 171 164 153 148 143 135 130 119 108 99 93 86 91 157 158 185 207 232 249 265 272 278 282 283 282 284 288 288 286 284 283 282 281 280
243 218 198 190 185 180 177 175 170 163 157 151 145 136 131 124 114 110 107 104 108 108 161 222 223 221 240 256 268 276 279 280 280 283 287 288 286 285 284 282 280 278 278
175 158 160 163 163 163 162 158 153 148 143 138 135 130 127 124 120 121 122 129 140 160 195 232 253 249 256 262 275 277 277 278 280 282 286 287 286 285 283 281 280 280 280
106 111 117 123 130 134 135 133 131 126 121 115 113 115 119 125 130 137 142 153 164 186 211 237 255 261 264 266 269 279 285 286 288 290 288 286 285 283 281 281 280 279 279
84 92 96 97 103 109 119 122 120 118 114 108 103 103 109 121 137 147 155 170 186 211 228 242 256 265 267 271 276 285 290 296 295 293 290 288 287 284 284 281 278 276 275
81 86 90 95 97 102 116 117 116 111 111 111 109 104 106 108 123 143 189 206 213 225 238 249 262 268 277 284 290 291 295 296 297 294 294 293 292 288 285 281 279 279 278
81 85 89 94 98 107 110 109 106 102 102 103 106 111 111 115 121 159 217 245 251 258 259 266 273 278 287 292 296 292 287 287 287 290 293 290 289 286 285 281 279 279 280
79 84 87 90 94 97 98 97 96 92 93 96 103 116 125 138 165 212 229 242 253 256 263 269 278 285 287 288 284 283 286 286 285 282 278 281 285 285 286 283 282 280 280
76 76 78 82 86 88 90 94 96 97 103 111 122 124 123 128 193 269 265 262 270 273 269 277 285 286 286 285 285 285 282 281 284 286 285 280 283 289 289 285 281 280 278
76 76 75 77 89 99 104 108 110 113 118 121 119 108 69 3 338 317 291 277 284 295 299 293 286 283 282 281 278 268 268 269 275 283 281 273 284 300 295 281 281 284 283
Height
1550 1551 1553 1554 1555 1556 1556 1556 1557 1557 1557 1557 1556 1556 1556 1555 1556 1556 1554 1554 1554 1553 1553 1553 1553 1553 1553 1552 1552 1551 1551 1550 1549 1548 1547 1546 1545 1544 1543 1542 1542 1541 1541
1546 1547 1549 1550 1551 1552 1553 1554 1554 1555 1555 1555 1555 1554 1554 1553 1554 1554 1553 1552 1552 1552 1552 1552 1552 1552 1552 1552 1551 1550 1550 1549 1548 1547 1546 1545 1544 1543 1542 1541 1540 1539 1539
1542 1543 1544 1545 1547 1548 1549 1551 1551 1552 1552 1552 1552 1552 1552 1551 1551 1551 1551 1551 1550 1550 1550 1550 1551 1551 1551 1550 1550 1549 1548 1547 1546 1545 1544 1543 1542 1541 1540 1539 1538 1537 1536
1538 1539 1539 1540 1542 1543 1545 1546 1547 1548 1549 1549 1549 1549 1549 1549 1549 1549 1548 1548 1548 1548 1548 1549 1549 1549 1549 1549 1548 1547 1546 1545 1544 1543 1542 1542 1541 1540 1539 1538 1536 1535 1534
1533 1534 1534 1535 1537 1538 1540 1541 1543 1544 1545 1546 1546 1546 1546 1546 1546 1545 1546 1546 1546 1546 1546 1546 1547 1547 1547 1547 1546 1546 1545 1543 1542 1541 1540 1539 1538 1538 1537 1536 1534 1533 1532
1527 1528 1529 1530 1531 1533 1534 1536 1538 1540 1541 1542 1542 1543 1542 1542 1542 1542 1543 1543 1543 1543 1544 1544 1544 1544 1544 1544 1544 1543 1542 1541 1540 1539 1538 1537 1536 1535 1534 1533 1532 1531 1530
1520 1521 1523 1524 1525 1526 1528 1530 1532 1534 1535 1537 1538 1539 1538 1538 1538 1538 1539 1539 1539 1540 1540 1541 1541 1541 1541 1541 1541 1540 1539 1538 1537 1536 1535 1534 1533 1533 1532 1531 1529 1528 1527
1513 1514 1515 1516 1518 1519 1521 1523 1525 1527 1529 1531 1533 1534 1535 1535 1532 1533 1534 1535 1535 1536 1536 1537 1537 1537 1537 1537 1537 1536 1536 1535 1534 1533 1532 1531 1530 1529 1528 1527 1525 1524 1523
1505 1506 1508 1509 1510 1512 1513 1515 1517 1520 1522 1525 1526 1529 1529 1528 1528 1528 1528 1529 1531 1531 1532 1532 1532 1533 1533 1533 1533 1531 1531 1530 1530 1529 1527 1526 1525 1524 1523 1522 1521 1519 1518
1497 1498 1500 1501 1502 1504 1506 1507 1510 1513 1515 1517 1519 1521 1523 1523 1524 1523 1524 1524 1525 1526 1527 1527 1528 1528 1528 1528 1528 1527 1526 1525 1525 1524 1522 1521 1520 1519 1517 1516 1515 1514 1512
1489 1490 1491 1493 1494 1496 1498 1500 1501 1504 1506 1509 1511 1513 1515 1517 1518 1519 1519 1519 1520 1521 1522 1522 1522 1523 1523 1523 1522 1521 1521 1520 1519 1518 1516 1515 1514 1512 1511 1510 1508 1507 1505
1481 1482 1483 1484 1486 1488 1490 1492 1493 1496 1498 1501 1503 1505 1507 1509 1510 1513 1514 1514 1514 1515 1516 1516 1517 1517 1517 1517 1517 1516 1515 1515 1514 1512 1511 1509 1507 1505 1503 1501 1499 1498 1497
1474 1474 1475 1476 1477 1479 1481 1484 1485 1487 1490 1492 1494 1497 1500 1502 1504 1507 1508 1509 1509 1509 1510 1510 1511 1511 1512 1512 1511 1510 1509 1509 1508 1506 1504 1502 1500 1497 1495 1492 1491 1489 1488
1467 1467 1467 1468 1470 1471 1473 1475 1477 1479 1482 1485 1487 1489 1491 1494 1497 1499 1501 1503 1504 1504 1504 1504 1505 1506 1506 1506 1505 1505 1503 1502 1501 1499 1497 1495 1492 1489 1487 1485 1482 1481 1480
1461 1461 1461 1461 1462 1464 1466 1467 1469 1471 1474 1477 1479 1481 1484 1486 1489 1492 1494 1496 1498 1498 1499 1499 1501 1500 1500 1500 1499 1498 1496 1494 1493 1491 1489 1486 1484 1481 1479 1477 1474 1473 1471
1454 1454 1455 1455 1456 1457 1458 1460 1462 1464 1467 1469 1472 1474 1476 1478 1481 1484 1486 1489 1490 1492 1493 1493 1495 1495 1495 1493 1492 1491 1489 1486 1484 1482 1480 1477 1475 1473 1471 1469 1467 1465 1463
1448 1448 1448 1449 1450 1451 1452 1454 1455 1458 1460 1462 1465 1467 1469 1472 1475 1478 1480 1483 1484 1486 1488 1488 1489 1488 1488 1487 1485 1483 1481 1479 1476 1474 1472 1469 1467 1465 1463 1461 1459 1457 1455
1442 1442 1442 1443 1444 1445 1447 1448 1450 1452 1454 1456 1458 1461 1464 1467 1470 1473 1476 1478 1480 1482 1483 1483 1482 1482 1481 1480 1478 1476 1474 1472 1469 1467 1465 1462 1459 1457 1455 1453 1451 1449 1448
1437 1437 1438 1439 1440 1441 1442 1443 1445 1446 1448 1451 1454 1457 1460 1464 1467 1470 1473 1475 1476 1477 1477 1477 1476 1475 1474 1473 1471 1469 1467 1465 1462 1460 1457 1455 1452 1450 1448 1446 1444 1442 1440
1434 1434 1435 1436 1437 1438 1439 1439 1441 1442 1445 1448 1452 1456 1460 1463 1466 1468 1470 1471 1471 1472 1472 1471 1471 1469 1468 1466 1465 1463 1461 1459 1457 1454 1451 1448 1445 1443 1442 1439 1437 1434 1432
1432 1432 1433 1434 1435 1436 1436 1437 1439 1441 1444 1448 1452 1456 1459 1462 1464 1465 1466 1466 1467 1467 1467 1467 1466 1464 1463 1462 1461 1459 1457 1454 1451 1448 1445 1442 1439 1436 1434 1432 1429 1427 1424
1431 1432 1432 1433 1434 1435 1436 1438 1440 1442 1446 1449 1452 1456 1458 1460 1461 1461 1462 1462 1462 1463 1462 1462 1461 1460 1459 1458 1456 1454 1452 1449 1445 1443 1440 1436 1434 1430 1427 1424 1422 1419 1416
1432 1433 1433 1435 1436 1437 1439 1441 1444 1446 1448 1450 1453 1454 1456 1456 1457 1457 1458 1458 1458 1458 1458 1458 1457 1456 1455 1453 1451 1448 1447 1444 1441 1438 1435 1429 1427 1423 1420 1416 1414 1411 1407
1435 1436 1437 1439 1440 1442 1443 1445 1447 1448 1449 1450 1452 1452 1453 1453 1454 1454 1454 1454 1454 1453 1453 1452 1451 1450 1448 1447 1446 1444 1442 1439 1435 1433 1430 1425 1421 1417 1413 1409 1406 1402 1399
1439 1440 1441 1443 1444 1445 1446 1448 1449 1449 1449 1450 1450 1451 1452 1452 1451 1451 1451 1451 1450 1450 1448 1446 1445 1444 1442 1441 1440 1438 1436 1433 1429 1427 1425 1421 1415 1411 1406 1401 1397 1393 1390
1444 1445 1446 1447 1447 1448 1448 1449 1449 1450 1450 1450 1450 1450 1450 1449 1448 1448 1448 1448 1447 1446 1444 1442 1441 1439 1438 1436 1435 1433 1431 1428 1424 1420 1418 1415 1410 1406 1396 1391 1389 1386 1381